FW1792 Weather Reports


time (UTC)temp
C
wind
direction
speed
KPH
gust
KPH
rain 1hr
cm
rain 24hr
cm
rain mn
cm
humidity
%
barometer
mb
20260507182747 14 13 3.2 8.0 0.00 0.79 0.23 75 1013.1
20260507182557 14 11 1.6 9.7 0.00 0.79 0.23 75 1013.1
20260507181235 15 18 4.8 9.7 0.00 0.79 0.23 73 1013.0
20260507181116 14 39 3.2 8.0 0.00 0.79 0.23 74 1013.1
20260507180551 15 39 4.8 9.7 0.00 0.79 0.23 74 1013.1
20260507175527 15 58 4.8 9.7 0.00 0.79 0.23 74 1013.1
20260507175248 15 35 1.6 6.4 0.00 0.79 0.23 74 1013.0
20260507175221 15 35 3.2 6.4 0.00 0.79 0.23 74 1013.1
20260507175043 15 35 3.2 4.8 0.00 0.79 0.23 74 1013.0
20260507173505 15 32 1.6 4.8 0.00 0.79 0.23 74 1013.0
20260507173006 15 32 1.6 4.8 0.00 0.79 0.23 74 1013.0
20260507172800 15 32 4.8 14.5 0.00 0.79 0.23 74 1013.0
20260507172537 15 32 1.6 9.7 0.00 0.79 0.23 74 1013.0
20260507171500 15 21 4.8 14.5 0.00 0.79 0.23 74 1013.0
20260507171001 15 25 6.4 16.1 0.00 0.79 0.23 74 1013.1
20260507170502 15 0 11.3 17.7 0.00 0.81 0.23 74 1013.1
20260507170001 15 357 9.7 17.7 0.00 0.81 0.23 74 1013.0
20260507165718 15 0 9.7 17.7 0.00 0.81 0.23 74 1013.2
20260507165539 15 16 8.0 16.1 0.00 0.81 0.23 74 1013.1
20260507164458 15 7 8.0 17.7 0.00 0.81 0.23 74 1013.1
20260507164157 14 39 6.4 9.7 0.03 0.99 0.23 71 1013.0
20260507164112 14 28 6.4 9.7 0.03 1.19 0.23 71 1013.0
20260507164014 15 10 11.3 17.7 0.00 0.81 0.23 74 1013.0
20260507163655 15 69 9.7 17.7 0.00 0.86 0.23 74 1013.0
20260507163117 15 34 8.0 17.7 0.03 0.97 0.23 74 1013.0
20260507162543 15 48 8.0 14.5 0.03 0.97 0.23 72 1013.0
20260507160948 14 27 3.2 9.7 0.03 1.52 0.23 70 1013.0
20260507160440 14 23 6.4 9.7 0.03 1.55 0.23 70 1012.9
20260507155935 13 73 4.8 8.0 0.00 1.55 0.23 70 1012.8
20260507155435 13 32 4.8 4.8 0.03 1.55 0.23 70 1012.8
20260507154436 13 30 3.2 4.8 0.13 1.63 0.23 71 1012.9
20260507154148 13 55 3.2 4.8 0.20 1.88 0.20 72 1012.3
20260507154003 13 348 3.2 6.4 0.15 1.65 0.23 70 1012.9
20260507153434 13 58 3.2 6.4 0.15 1.78 0.23 71 1012.8
20260507153406 13 94 3.2 8.0 0.15 1.85 0.20 71 1012.8
20260507153049 13 63 3.2 8.0 0.15 1.83 0.20 71 1012.6
20260507152007 13 62 3.2 4.8 0.20 1.88 0.20 72 1012.6
20260507151114 13 257 1.6 11.3 0.20 1.91 0.20 73 1012.3
20260507150949 13 340 3.2 4.8 0.20 1.91 0.20 72 1012.2
20260507145929 13 247 4.8 22.5 0.18 1.73 0.18 73 1012.4
20260507145430 13 254 11.3 25.7 0.15 1.73 0.15 74 1012.3
20260507144928 14 254 16.1 25.7 0.13 1.73 0.13 74 1012.2
20260507144426 15 240 14.5 30.6 0.10 1.73 0.10 73 1012.2
20260507143926 15 247 17.7 30.6 0.08 1.73 0.08 73 1011.9
20260507143428 16 254 12.9 19.3 0.05 1.73 0.05 74 1011.9
20260507143111 17 149 4.8 16.1 0.05 1.73 0.05 70 1011.4
20260507142953 17 235 8.0 16.1 0.05 1.73 0.05 72 1011.5
20260507142133 18 124 3.2 9.7 0.00 1.73 0.00 68 1011.0
20260507142004 18 216 0.0 9.7 0.00 1.73 0.00 69 1011.1
20260507140923 18 175 0.0 9.7 0.00 1.73 0.00 68 1010.9
20260507140423 18 37 0.0 9.7 0.00 1.73 0.00 68 1010.8
20260507135924 18 28 0.0 4.8 0.00 1.73 0.00 67 1011.0
20260507135423 18 348 0.0 8.0 0.00 1.75 0.00 66 1010.9
20260507134921 18 133 0.0 8.0 0.00 1.75 0.00 64 1011.0
20260507134417 19 334 0.0 6.4 0.00 1.75 0.00 63 1010.9
20260507133919 19 145 0.0 6.4 0.00 1.75 0.00 60 1011.0
20260507133418 19 78 0.0 11.3 0.00 1.75 0.00 58 1011.1
20260507132916 19 152 0.0 11.3 0.00 1.78 0.00 59 1011.1
20260507132421 19 219 0.0 9.7 0.00 1.83 0.00 62 1011.1
20260507131911 19 180 1.6 19.3 0.00 1.83 0.00 60 1011.2
20260507131417 20 212 0.0 19.3 0.00 1.98 0.00 60 1011.2
20260507130912 20 175 3.2 14.5 0.00 2.36 0.00 60 1011.3
20260507130413 20 109 1.6 9.7 0.00 2.51 0.00 61 1011.3
20260507125905 19 220 1.6 9.7 0.00 2.59 0.00 61 1011.2
20260507125402 19 166 0.0 8.0 0.00 2.67 0.00 60 1011.2
20260507125024 20 92 4.8 19.3 0.00 2.69 0.00 59 1011.4
20260507124909 19 144 0.0 19.3 0.00 2.69 0.00 56 1011.2
20260507124544 19 154 4.8 19.3 0.00 2.69 0.00 57 1011.3
20260507123942 19 193 0.0 9.7 0.00 2.69 0.00 56 1011.2
20260507123451 20 247 0.0 20.9 0.00 2.69 0.00 54 1011.2
20260507123413 19 157 1.6 11.3 0.00 2.69 0.00 58 1011.2
20260507123049 19 197 0.0 17.7 0.00 2.69 0.00 57 1011.3
20260507122746 20 216 3.2 25.7 0.00 2.69 0.00 53 1011.3
20260507122504 20 162 6.4 17.7 0.00 2.69 0.00 55 1011.3
20260507120851 20 188 9.7 25.7 0.00 2.69 0.00 55 1011.3
20260507120524 20 237 0.0 9.7 0.00 2.69 0.00 57 1011.3
20260507115950 20 148 0.0 11.3 0.00 2.69 0.00 56 1011.3
20260507115407 20 162 3.2 19.3 0.00 2.69 0.00 58 1011.4
20260507114336 20 224 4.8 16.1 0.00 2.69 0.00 59 1011.3
20260507114232 19 128 9.7 16.1 0.00 2.72 0.00 59 1011.4
20260507113934 19 133 1.6 17.7 0.00 2.69 0.00 61 1011.3
20260507113401 19 209 9.7 17.7 0.00 2.72 0.00 57 1011.4
20260507112522 19 92 3.2 17.7 0.00 2.72 0.00 63 1011.5
20260507112403 19 165 8.0 11.3 0.00 2.72 0.00 58 1011.5
20260507111332 19 124 6.4 17.7 0.00 2.72 0.00 62 1011.5
20260507111134 19 87 6.4 17.7 0.00 2.72 0.00 63 1011.5
20260507111111 19 127 8.0 17.7 0.00 2.74 0.00 65 1011.7
20260507110911 19 182 8.0 16.1 0.00 2.72 0.00 65 1011.6
20260507105334 19 137 3.2 16.1 0.00 2.74 0.00 63 1011.7
20260507104832 19 151 6.4 17.7 0.00 2.74 0.00 66 1011.8
20260507104331 19 162 9.7 19.3 0.00 2.74 0.00 65 1011.8
20260507103834 20 103 9.7 19.3 0.00 2.74 0.00 66 1011.9
20260507103334 20 268 6.4 16.1 0.00 2.74 0.00 64 1012.0
20260507102834 20 52 8.0 14.5 0.00 2.74 0.00 63 1011.9
20260507102649 19 166 6.4 17.7 0.00 2.77 0.00 65 1011.9
20260507102628 19 117 8.0 17.7 0.00 2.77 0.00 64 1012.0
20260507102422 19 76 4.8 14.5 0.00 2.74 0.00 66 1011.9
20260507100833 19 93 3.2 9.7 0.00 2.77 0.00 66 1012.0
20260507100335 18 176 3.2 11.3 0.00 2.77 0.00 67 1012.1
20260507095834 18 169 6.4 14.5 0.00 2.77 0.00 66 1012.1
20260507095546 18 1 1.6 16.1 0.00 2.79 0.00 69 1012.0
20260507095402 18 97 8.0 14.5 0.00 2.79 0.00 69 1012.0
20260507094333 18 83 11.3 20.9 0.00 2.79 0.00 69 1012.0
20260507093833 18 96 3.2 20.9 0.00 2.82 0.00 71 1012.0
20260507093334 17 89 8.0 14.5 0.00 2.84 0.00 72 1011.9
20260507092833 17 48 4.8 9.7 0.00 2.84 0.00 73 1011.8
20260507092333 17 87 4.8 9.7 0.00 2.84 0.00 73 1011.9
20260507091832 17 96 4.8 9.7 0.00 2.87 0.00 73 1011.8
20260507091332 17 44 4.8 9.7 0.00 2.87 0.00 73 1011.9
20260507090834 18 73 3.2 8.0 0.00 2.87 0.00 73 1011.9
20260507090328 18 52 3.2 11.3 0.00 2.87 0.00 73 1012.0
20260507090231 17 68 4.8 14.5 0.00 2.87 0.00 74 1012.0
20260507090201 17 44 6.4 14.5 0.00 2.87 0.00 74 1012.0
20260507085913 17 31 4.8 11.3 0.00 2.87 0.00 74 1012.0
20260507084324 17 82 8.0 14.5 0.00 2.87 0.00 74 1012.0
20260507083946 17 94 4.8 9.7 0.00 2.87 0.00 74 1012.0
20260507083842 17 107 6.4 9.7 0.00 2.87 0.00 74 1012.0
20260507082821 17 65 4.8 14.5 0.00 2.87 0.00 74 1011.9
20260507082321 17 10 6.4 14.5 0.00 2.87 0.00 74 1011.8
20260507081817 17 78 6.4 9.7 0.00 2.87 0.00 74 1011.9
20260507081532 17 30 9.7 14.5 0.00 2.87 0.00 74 1011.8
20260507081347 17 54 6.4 14.5 0.00 2.87 0.00 74 1011.9
20260507080309 17 52 3.2 9.7 0.00 2.87 0.00 74 1011.8
20260507075807 16 85 3.2 9.7 0.00 2.87 0.00 74 1011.8
20260507075309 16 3 3.2 11.3 0.00 2.87 0.00 72 1011.8
20260507074806 16 0 4.8 11.3 0.00 2.87 0.00 72 1011.8
20260507074306 16 69 4.8 9.7 0.00 2.87 0.00 72 1011.8
20260507073804 16 61 6.4 8.0 0.00 2.90 0.00 72 1011.8
20260507073300 15 7 3.2 11.3 0.00 2.90 0.00 72 1011.8
20260507072758 15 18 4.8 11.3 0.00 2.90 0.00 72 1011.8
20260507072257 15 0 8.0 6.4 0.00 2.90 0.00 71 1011.7
20260507071544 15 331 6.4 11.3 0.00 2.92 0.00 72 1011.6
20260507071359 15 0 6.4 11.3 0.00 2.90 0.00 72 1011.6
20260507070319 15 24 4.8 11.3 0.00 2.92 0.00 72 1011.6
20260507065821 15 49 6.4 9.7 0.00 2.97 0.00 72 1011.5
20260507065318 15 0 3.2 9.7 0.00 3.00 0.00 72 1011.6
20260507064959 15 20 4.8 11.3 0.00 3.07 0.00 71 1011.5
20260507064838 15 0 8.0 11.3 0.00 3.05 0.00 72 1011.6
20260507063820 14 49 4.8 11.3 0.00 3.15 0.00 71 1011.5
20260507063313 14 6 4.8 9.7 0.00 3.15 0.00 70 1011.5
20260507062811 14 28 3.2 8.0 0.00 3.23 0.00 70 1011.5
20260507062509 13 39 4.8 9.7 0.00 3.25 0.00 71 1011.4
20260507062334 13 27 4.8 9.7 0.00 3.25 0.00 71 1011.5
20260507061304 13 42 4.8 8.0 0.00 3.25 0.00 70 1011.4
20260507061144 13 35 3.2 6.4 0.00 3.25 0.00 70 1011.4
20260507061136 13 35 3.2 8.0 0.00 3.25 0.00 71 1011.3
20260507060855 13 37 4.8 6.4 0.00 3.25 0.00 70 1011.4
20260507055300 13 35 3.2 9.7 0.00 3.25 0.00 71 1011.2
20260507054757 13 44 8.0 9.7 0.00 3.25 0.00 70 1011.1
20260507054255 13 28 4.8 8.0 0.00 3.25 0.00 70 1011.1
20260507053752 13 30 3.2 6.4 0.00 3.25 0.00 70 1011.1
20260507053603 13 0 4.8 14.5 0.00 3.25 0.00 70 1011.0
20260507053515 13 51 6.4 14.5 0.00 3.25 0.00 69 1011.0
20260507053330 13 16 4.8 11.3 0.00 3.25 0.00 70 1011.1
20260507051742 13 37 6.4 9.7 0.00 3.25 0.00 69 1010.9
20260507051245 13 55 6.4 9.7 0.00 3.25 0.00 68 1010.8
20260507050749 13 35 3.2 8.0 0.00 3.25 0.00 68 1010.7
20260507050244 13 38 0.0 0.0 0.00 3.25 0.00 67 1010.7
20260507045743 13 16 0.0 0.0 0.00 3.25 0.00 67 1010.6
20260507045241 13 14 0.0 4.8 0.00 3.25 0.00 66 1010.7
20260507044741 12 25 0.0 4.8 0.00 3.25 0.00 66 1010.7
20260507044431 12 35 0.0 4.8 0.00 3.25 0.00 66 1010.6
20260507044300 12 30 0.0 4.8 0.00 3.25 0.00 66 1010.6
20260507043238 12 38 3.2 4.8 0.00 3.25 0.00 66 1010.5
20260507042735 12 39 0.0 4.8 0.00 3.25 0.00 66 1010.5
20260507042238 12 47 0.0 0.0 0.00 3.25 0.00 66 1010.4
20260507041737 12 38 0.0 0.0 0.00 3.25 0.00 66 1010.4
20260507041411 12 42 0.0 0.0 0.00 3.25 0.00 66 1010.4
20260507041300 12 35 0.0 0.0 0.00 3.25 0.00 66 1010.4
20260507040233 13 69 0.0 0.0 0.00 3.25 0.00 66 1010.4
20260507035902 13 56 0.0 0.0 0.00 3.25 0.00 66 1010.4
20260507035752 13 69 0.0 0.0 0.00 3.25 0.00 66 1010.4
20260507034732 13 1 0.0 0.0 0.00 3.25 0.00 66 1010.4
20260507034422 13 1 0.0 0.0 0.00 3.25 0.00 66 1010.3
20260507034256 13 1 0.0 0.0 0.00 3.25 0.00 66 1010.4
20260507033231 13 1 0.0 0.0 0.00 3.25 0.00 66 1010.3
20260507032728 13 25 0.0 0.0 0.00 3.25 0.00 66 1010.2
20260507032228 13 27 0.0 0.0 0.00 3.25 0.00 66 1010.2
20260507031727 13 27 0.0 0.0 0.00 3.25 0.00 66 1010.3
20260507031223 13 27 0.0 0.0 0.00 3.25 0.00 66 1010.2
20260507030726 13 27 0.0 0.0 0.00 3.25 0.00 66 1010.3
20260507030618 13 35 0.0 0.0 0.00 3.25 0.00 66 1010.2
20260507030507 13 35 0.0 0.0 0.00 3.25 0.00 66 1010.2
20260507030306 13 27 0.0 0.0 0.00 3.25 0.00 66 1010.3
20260507024724 13 35 0.0 0.0 0.00 3.25 0.00 66 1010.1
20260507024220 13 35 0.0 0.0 0.00 3.25 0.00 66 1010.2
20260507023721 13 35 0.0 0.0 0.00 3.25 0.00 66 1010.2
20260507023218 13 35 0.0 0.0 0.00 3.25 0.00 66 1010.2
20260507022715 13 35 0.0 0.0 0.00 3.25 0.00 66 1010.1
20260507022213 13 35 0.0 0.0 0.00 3.25 0.00 66 1010.2
20260507021713 13 35 0.0 0.0 0.00 3.25 0.00 66 1010.1
20260507021212 13 35 0.0 0.0 0.00 3.25 0.00 66 1010.1
20260507020710 13 35 0.0 0.0 0.00 3.25 0.00 66 1010.2
20260507020211 13 35 0.0 0.0 0.00 3.25 0.00 66 1010.2
20260507015711 13 35 0.0 0.0 0.00 3.25 0.00 66 1010.2
20260507015214 13 35 0.0 0.0 0.00 3.25 0.00 66 1010.1
20260507014710 13 35 0.0 0.0 0.00 3.25 0.00 66 1010.0
20260507014208 13 35 0.0 0.0 0.00 3.25 0.00 66 1010.2
20260507013706 13 35 0.0 0.0 0.00 3.25 0.00 66 1010.2
20260507013326 13 35 0.0 0.0 0.00 3.25 0.00 66 1010.2
20260507013226 13 35 0.0 0.0 0.00 3.25 0.00 66 1010.2
20260507012203 13 35 0.0 0.0 0.00 3.25 0.00 66 1010.3
20260507011659 13 35 0.0 0.0 0.00 3.25 0.00 66 1010.3
20260507011155 13 35 0.0 0.0 0.00 3.25 0.00 66 1010.3
20260507010654 13 35 0.0 0.0 0.00 3.25 0.00 66 1010.2
20260507010153 13 35 0.0 0.0 0.00 3.25 0.00 66 1010.2
20260507005655 13 35 0.0 0.0 0.00 3.25 0.00 66 1010.2
20260507005155 13 35 0.0 0.0 0.00 3.25 0.00 66 1010.3
20260507004655 13 35 0.0 0.0 0.00 3.25 0.00 66 1010.2
20260507004153 13 37 0.0 0.0 0.00 3.25 0.00 66 1010.2
20260507003654 13 37 0.0 0.0 0.00 3.25 0.00 66 1010.3
20260507003154 13 37 0.0 0.0 0.00 3.25 0.00 66 1010.3
20260507002653 13 35 0.0 0.0 0.00 3.25 0.00 66 1010.3
20260507002149 13 37 0.0 0.0 0.00 3.25 0.00 66 1010.3
20260507001900 13 37 0.0 0.0 0.00 3.25 0.00 66 1010.4
20260507001718 13 37 0.0 0.0 0.00 3.25 0.00 66 1010.4
20260507000856 13 37 0.0 0.0 0.00 3.40 0.00 66 1010.4
20260507000721 13 37 0.0 0.0 0.00 3.40 0.00 66 1010.4
20260506235641 13 37 0.0 0.0 0.00 3.40 0.00 65 1010.4
20260506235141 13 37 0.0 0.0 0.00 3.40 0.00 66 1010.4
20260506234839 13 38 0.0 0.0 0.00 3.40 0.00 66 1010.4
20260506234707 13 37 0.0 0.0 0.00 3.40 0.00 66 1010.3
20260506233641 13 38 0.0 0.0 0.00 3.40 0.00 66 1010.4
20260506233137 13 38 0.0 0.0 0.00 3.40 0.00 66 1010.4
20260506232635 13 38 0.0 0.0 0.00 3.40 0.00 66 1010.5
20260506232136 13 62 0.0 0.0 0.00 3.40 0.00 66 1010.5
20260506231631 13 62 0.0 0.0 0.00 3.40 0.00 66 1010.5
20260506231133 13 61 0.0 0.0 0.00 3.40 0.00 66 1010.5
20260506230628 13 61 0.0 0.0 0.00 3.40 0.00 66 1010.5
20260506230410 13 61 0.0 0.0 0.00 3.40 0.00 65 1010.6
20260506230209 13 61 0.0 0.0 0.00 3.40 0.00 65 1010.5
20260506225128 13 61 0.0 0.0 0.00 3.40 0.00 65 1010.6
20260506224551 13 61 0.0 0.0 0.00 3.40 0.00 65 1010.6
20260506224159 13 61 0.0 0.0 0.00 3.40 0.00 65 1010.5
20260506223141 13 61 0.0 0.0 0.00 3.40 0.00 65 1010.5
20260506222636 13 62 0.0 0.0 0.00 3.40 0.00 65 1010.5
20260506222137 13 62 0.0 0.0 0.00 3.40 0.00 65 1010.4
20260506221636 13 62 0.0 0.0 0.00 3.40 0.00 65 1010.3
20260506221138 13 62 0.0 0.0 0.00 3.40 0.00 65 1010.3
20260506220636 13 62 0.0 0.0 0.00 3.40 0.00 65 1010.4
20260506220139 13 62 0.0 0.0 0.00 3.40 0.00 65 1010.4
20260506215630 13 62 0.0 0.0 0.00 3.40 3.40 65 1010.4
20260506215128 13 62 0.0 0.0 0.00 3.40 3.40 65 1010.4
20260506214628 13 63 0.0 0.0 0.00 3.40 3.40 65 1010.4
20260506214126 13 102 0.0 3.2 0.00 3.40 3.40 65 1010.5
20260506213625 13 248 0.0 6.4 0.00 3.40 3.40 65 1010.5
20260506213325 14 217 0.0 8.0 0.00 3.40 3.40 65 1010.4
20260506213157 13 243 1.6 6.4 0.00 3.40 3.40 65 1010.3
20260506212125 14 72 4.8 11.3 0.00 3.40 3.40 65 1010.4
20260506211622 14 87 6.4 11.3 0.00 3.43 3.40 65 1010.4
20260506211124 14 89 4.8 11.3 0.00 3.43 3.40 65 1010.5
20260506210623 14 56 6.4 14.5 0.00 3.43 3.40 65 1010.4
20260506210124 14 61 4.8 14.5 0.00 3.43 3.40 65 1010.4
20260506205622 14 86 4.8 11.3 0.03 3.43 3.40 65 1010.3
20260506205119 14 75 8.0 11.3 0.05 3.43 3.40 65 1010.3
20260506204619 14 93 0.0 9.7 0.05 3.43 3.40 65 1010.4
20260506204303 13 16 0.0 0.0 0.20 3.51 3.40 65 1010.4
20260506204144 13 17 0.0 0.0 0.13 3.45 3.40 65 1010.4
20260506203116 14 16 0.0 0.0 0.30 3.53 3.40 65 1010.4
20260506202616 14 144 0.0 0.0 0.36 3.53 3.40 65 1010.4
20260506202116 14 144 0.0 0.0 0.43 3.53 3.40 65 1010.3
20260506201615 13 142 0.0 0.0 0.51 3.61 3.40 65 1010.3
20260506201112 13 241 0.0 1.6 0.51 3.66 3.40 65 1010.3
20260506200611 13 241 0.0 1.6 0.56 3.71 3.40 65 1010.2
20260506200109 13 241 0.0 4.8 0.58 3.71 3.40 65 1010.2
20260506195608 13 241 1.6 4.8 0.56 3.15 3.38 65 1010.1
20260506195109 13 241 0.0 1.6 0.53 3.15 3.33 65 1010.0
20260506194605 13 238 0.0 11.3 0.51 3.17 3.33 65 1009.9
20260506194105 13 227 1.6 11.3 0.46 3.17 3.25 65 1009.9
20260506193606 13 275 8.0 14.5 0.38 3.23 3.17 65 1009.7
20260506193107 13 245 11.3 14.5 0.28 3.23 3.07 65 1009.9
20260506192605 13 289 0.0 0.0 0.23 3.25 3.02 65 1009.8
20260506192109 14 292 0.0 0.0 0.15 3.25 2.95 65 1009.9
20260506191603 14 344 0.0 0.0 0.08 3.28 2.87 65 1009.7
20260506191104 14 278 0.0 0.0 0.05 3.28 2.87 65 1009.6
20260506190604 15 269 0.0 0.0 0.03 3.28 2.82 65 1009.5
20260506190329 15 243 0.0 0.0 0.00 3.30 2.82 65 1009.3
20260506190136 15 243 0.0 0.0 0.00 3.30 2.82 65 1009.4
20260506185100 15 244 0.0 9.7 0.00 3.33 2.82 65 1009.4
20260506184558 15 243 3.2 11.3 0.00 3.33 2.82 65 1009.4
20260506184254 15 169 0.0 19.3 0.00 3.35 2.82 65 1009.4
20260506184122 15 234 8.0 14.5 0.00 3.35 2.82 65 1009.4
20260506183057 15 226 8.0 19.3 0.00 3.35 2.82 65 1009.3